{"data":{"norad_id":57226,"epoch":"2026-09-20T08:23:34.097280Z","epoch_age_seconds":133995,"freshness":"FRESH","line1":"1 57226U 23094J   26263.34970020 -.00000509  00000+0 -89715-5 0  9994","line2":"2 57226  43.0056  11.6011 0001616 279.0871  80.9797 15.27575743176886","mean_motion":15.27575743,"eccentricity":0.0001616,"inclination_deg":43.0056,"raan_deg":11.6011,"arg_perigee_deg":279.0871,"mean_anomaly_deg":80.9797,"bstar":-8.9715e-6,"rev_number":17688,"period_min":94.26701141326,"perigee_km":481.95307332566,"apogee_km":484.17061279174,"semimajor_km":6861.1988430587,"source":"CELESTRAK","updated_at":"2026-09-21T09:00:33.585272Z"}}